Location: Cartignies
(50.0929°N, 3.8447°E)
Time: 14:54:14
(UTC+00:00)

DMSP B5D1-3 - Pass Details

Date: 12 January 2026
Orbit: 759 x 772 km, 98.5° (Epoch: 16 February)

Event Time Altitude Azimuth Distance (km) Brightness Sun altitude
Exits shadow 18:40:16 65° 78° (ENE) 836 4.3 -23.8°
Maximum altitude 18:40:36 67° 103° (ESE) 824 4.3 -23.9°
Drops below altitude 10° 18:45:37 10° 186° (S) 2,289 7.1 -24.7°
Sets 18:47:55 0° 189° (S) 3,212 7.9 -25.0°
